| time (UTC) | temp C | wind direction | speed KPH | gust KPH | rain 1hr cm | rain 24hr cm | rain mn cm | humidity % | barometer mb |
| 20260504110133 | 11 | 208 | 0.0 | 6.4 | 0.00 | 0.00 | 0.00 | 83 | 1014.0 |
| 20260504100542 | 10 | 225 | 0.0 | 4.8 | 0.00 | 0.00 | 0.00 | 82 | 1014.0 |
| 20260504081851 | 9 | 171 | 1.6 | 14.5 | 0.00 | 0.00 | 0.00 | 79 | 1014.0 |
| 20260504081351 | 9 | 168 | 1.6 | 8.0 | 0.00 | 0.00 | 0.00 | 78 | 1013.9 |
| 20260504080848 | 9 | 172 | 1.6 | 8.0 | 0.00 | 0.00 | 0.00 | 78 | 1014.0 |
| 20260504080617 | 8 | 168 | 1.6 | 8.0 | 0.00 | 0.00 | 0.00 | 78 | 1014.0 |
| 20260504080111 | 8 | 169 | 1.6 | 8.0 | 0.00 | 0.00 | 0.00 | 77 | 1014.0 |
| 20260504060128 | 9 | 207 | 0.0 | 0.0 | 0.00 | 0.00 | 0.00 | 62 | 1013.9 |
| 20260504050457 | 8 | 221 | 0.0 | 0.0 | 0.00 | 0.00 | 0.00 | 62 | 1014.1 |
| 20260504045945 | 8 | 221 | 0.0 | 0.0 | 0.00 | 0.00 | 0.00 | 62 | 1014.1 |
| 20260504045428 | 8 | 221 | 0.0 | 0.0 | 0.00 | 0.00 | 0.00 | 61 | 1014.2 |
| 20260504044907 | 8 | 224 | 0.0 | 0.0 | 0.00 | 0.00 | 0.00 | 62 | 1014.1 |
| 20260504044639 | 8 | 226 | 0.0 | 0.0 | 0.00 | 0.00 | 0.00 | 62 | 1014.0 |
| 20260504043901 | 8 | 226 | 0.0 | 0.0 | 0.00 | 0.00 | 0.00 | 62 | 1014.0 |
| 20260504043351 | 8 | 226 | 0.0 | 0.0 | 0.00 | 0.00 | 0.00 | 62 | 1013.9 |
| 20260504043109 | 8 | 226 | 0.0 | 0.0 | 0.00 | 0.00 | 0.00 | 62 | 1013.9 |
| 20260504042336 | 8 | 226 | 0.0 | 0.0 | 0.00 | 0.00 | 0.00 | 62 | 1013.9 |
| 20260504041817 | 8 | 226 | 0.0 | 0.0 | 0.00 | 0.00 | 0.00 | 62 | 1013.9 |
| 20260504041312 | 8 | 227 | 0.0 | 0.0 | 0.00 | 0.00 | 0.00 | 62 | 1013.8 |
| 20260504040808 | 8 | 226 | 0.0 | 0.0 | 0.00 | 0.00 | 0.00 | 61 | 1013.7 |
| 20260504040310 | 8 | 227 | 0.0 | 0.0 | 0.00 | 0.00 | 0.00 | 61 | 1013.7 |
| 20260504040305 | 8 | 227 | 0.0 | 0.0 | 0.00 | 0.00 | 0.00 | 61 | 1013.6 |
| 20260504035304 | 8 | 227 | 0.0 | 0.0 | 0.00 | 0.00 | 0.00 | 61 | 1013.7 |
| 20260504034801 | 8 | 282 | 0.0 | 0.0 | 0.00 | 0.00 | 0.00 | 60 | 1013.7 |
| 20260504034249 | 8 | 282 | 0.0 | 0.0 | 0.00 | 0.00 | 0.00 | 60 | 1013.7 |
| 20260504033737 | 8 | 282 | 0.0 | 0.0 | 0.00 | 0.00 | 0.00 | 60 | 1013.6 |
| 20260504033219 | 8 | 282 | 0.0 | 0.0 | 0.00 | 0.00 | 0.00 | 60 | 1013.6 |
| 20260504032713 | 8 | 282 | 0.0 | 0.0 | 0.00 | 0.00 | 0.00 | 60 | 1013.6 |
| 20260504032159 | 8 | 282 | 0.0 | 0.0 | 0.00 | 0.00 | 0.00 | 60 | 1013.5 |
| 20260504031627 | 8 | 282 | 0.0 | 0.0 | 0.00 | 0.00 | 0.00 | 60 | 1013.3 |
| 20260504031402 | 8 | 282 | 0.0 | 0.0 | 0.00 | 0.00 | 0.00 | 59 | 1013.4 |
| 20260504030617 | 8 | 282 | 0.0 | 0.0 | 0.00 | 0.00 | 0.00 | 59 | 1013.3 |
| 20260504030111 | 8 | 282 | 0.0 | 0.0 | 0.00 | 0.00 | 0.00 | 59 | 1013.4 |
| 20260504025610 | 8 | 282 | 0.0 | 0.0 | 0.00 | 0.00 | 0.00 | 59 | 1013.3 |
| 20260504025102 | 8 | 282 | 0.0 | 0.0 | 0.00 | 0.00 | 0.00 | 59 | 1013.3 |
| 20260504024555 | 8 | 282 | 0.0 | 0.0 | 0.00 | 0.00 | 0.00 | 59 | 1013.3 |
| 20260504024046 | 8 | 282 | 0.0 | 0.0 | 0.00 | 0.00 | 0.00 | 58 | 1013.3 |
| 20260504023533 | 8 | 282 | 0.0 | 0.0 | 0.00 | 0.00 | 0.00 | 57 | 1013.3 |
| 20260504023021 | 8 | 282 | 0.0 | 0.0 | 0.00 | 0.00 | 0.00 | 57 | 1013.3 |
| 20260504023013 | 8 | 282 | 0.0 | 0.0 | 0.00 | 0.00 | 0.00 | 57 | 1013.3 |
| 20260504022003 | 9 | 282 | 0.0 | 0.0 | 0.00 | 0.00 | 0.00 | 57 | 1013.3 |
| 20260504021445 | 9 | 282 | 0.0 | 0.0 | 0.00 | 0.00 | 0.00 | 57 | 1013.3 |
| 20260504020943 | 9 | 282 | 0.0 | 0.0 | 0.00 | 0.00 | 0.00 | 56 | 1013.3 |
| 20260504020441 | 9 | 282 | 0.0 | 0.0 | 0.00 | 0.00 | 0.00 | 55 | 1013.2 |
| 20260504015935 | 9 | 282 | 0.0 | 0.0 | 0.00 | 0.00 | 0.00 | 55 | 1013.3 |
| 20260504015436 | 10 | 282 | 0.0 | 0.0 | 0.00 | 0.00 | 0.00 | 54 | 1013.3 |
| 20260504014903 | 10 | 282 | 0.0 | 0.0 | 0.00 | 0.00 | 0.00 | 54 | 1013.3 |
| 20260504014633 | 10 | 282 | 0.0 | 0.0 | 0.00 | 0.00 | 0.00 | 53 | 1013.3 |
| 20260504013859 | 10 | 282 | 0.0 | 0.0 | 0.00 | 0.00 | 0.00 | 53 | 1013.3 |
| 20260504013350 | 10 | 282 | 0.0 | 0.0 | 0.00 | 0.00 | 0.00 | 52 | 1013.3 |
| 20260504012849 | 10 | 282 | 0.0 | 0.0 | 0.00 | 0.00 | 0.00 | 52 | 1013.3 |
| 20260504012337 | 10 | 282 | 0.0 | 0.0 | 0.00 | 0.00 | 0.00 | 52 | 1013.2 |
| 20260504011759 | 10 | 282 | 0.0 | 0.0 | 0.00 | 0.00 | 0.00 | 51 | 1013.2 |
| 20260504011301 | 11 | 282 | 0.0 | 0.0 | 0.00 | 0.00 | 0.00 | 50 | 1013.0 |
| 20260504010742 | 11 | 282 | 0.0 | 0.0 | 0.00 | 0.00 | 0.00 | 49 | 1013.0 |
| 20260504010239 | 11 | 282 | 0.0 | 0.0 | 0.00 | 0.00 | 0.00 | 48 | 1012.9 |
| 20260504005707 | 11 | 282 | 0.0 | 0.0 | 0.00 | 0.00 | 0.00 | 48 | 1013.0 |
| 20260504005201 | 11 | 282 | 0.0 | 0.0 | 0.00 | 0.00 | 0.00 | 48 | 1013.0 |
| 20260504004700 | 11 | 282 | 0.0 | 0.0 | 0.00 | 0.00 | 0.00 | 47 | 1012.8 |
| 20260504004154 | 12 | 282 | 0.0 | 0.0 | 0.00 | 0.00 | 0.00 | 46 | 1012.8 |
| 20260504003636 | 12 | 282 | 0.0 | 0.0 | 0.00 | 0.00 | 0.00 | 45 | 1012.8 |
| 20260504003404 | 12 | 282 | 0.0 | 0.0 | 0.00 | 0.00 | 0.00 | 46 | 1012.8 |
| 20260504002629 | 12 | 282 | 0.0 | 0.0 | 0.00 | 0.00 | 0.00 | 45 | 1012.7 |
| 20260504002128 | 13 | 282 | 0.0 | 0.0 | 0.00 | 0.00 | 0.00 | 44 | 1012.6 |
| 20260504001619 | 13 | 282 | 0.0 | 0.0 | 0.00 | 0.00 | 0.00 | 44 | 1012.4 |
| 20260504001103 | 13 | 282 | 0.0 | 0.0 | 0.00 | 0.00 | 0.00 | 41 | 1012.4 |
| 20260504000601 | 14 | 282 | 0.0 | 0.0 | 0.00 | 0.00 | 0.00 | 41 | 1012.3 |
| 20260504000052 | 14 | 282 | 0.0 | 0.0 | 0.00 | 0.00 | 0.00 | 40 | 1012.3 |
| 20260503235525 | 15 | 282 | 0.0 | 0.0 | 0.00 | 0.00 | 0.00 | 37 | 1012.4 |
| 20260503235021 | 15 | 282 | 0.0 | 0.0 | 0.00 | 0.00 | 0.00 | 37 | 1012.3 |
| 20260503234459 | 15 | 282 | 0.0 | 0.0 | 0.00 | 0.00 | 0.00 | 35 | 1012.3 |
| 20260503233951 | 15 | 282 | 0.0 | 0.0 | 0.00 | 0.00 | 0.00 | 35 | 1012.3 |
| 20260503233454 | 15 | 282 | 0.0 | 0.0 | 0.00 | 0.00 | 0.00 | 35 | 1012.3 |
| 20260503232929 | 15 | 284 | 0.0 | 0.0 | 0.00 | 0.00 | 0.00 | 34 | 1012.3 |
| 20260503232425 | 15 | 283 | 0.0 | 3.2 | 0.00 | 0.00 | 0.00 | 34 | 1012.2 |
| 20260503231922 | 15 | 284 | 1.6 | 8.0 | 0.00 | 0.00 | 0.00 | 34 | 1012.3 |
| 20260503231405 | 15 | 293 | 3.2 | 9.7 | 0.00 | 0.00 | 0.00 | 33 | 1012.3 |
| 20260503230856 | 15 | 269 | 3.2 | 9.7 | 0.00 | 0.00 | 0.00 | 32 | 1012.3 |
| 20260503230357 | 16 | 242 | 3.2 | 9.7 | 0.00 | 0.00 | 0.00 | 32 | 1012.2 |
| 20260503225847 | 16 | 282 | 3.2 | 11.3 | 0.00 | 0.00 | 0.00 | 32 | 1012.2 |
| 20260503225345 | 16 | 290 | 4.8 | 16.1 | 0.00 | 0.00 | 0.00 | 33 | 1012.1 |
| 20260503225113 | 16 | 295 | 6.4 | 16.1 | 0.00 | 0.00 | 0.00 | 31 | 1012.0 |
| 20260503224339 | 16 | 286 | 6.4 | 14.5 | 0.00 | 0.00 | 0.00 | 31 | 1012.1 |
| 20260503224106 | 16 | 294 | 8.0 | 17.7 | 0.00 | 0.00 | 0.00 | 31 | 1012.1 |
| 20260503223336 | 16 | 279 | 8.0 | 22.5 | 0.00 | 0.00 | 0.00 | 32 | 1012.1 |
| 20260503222851 | 16 | 279 | 8.0 | 24.1 | 0.00 | 0.00 | 0.00 | 32 | 1012.1 |
| 20260503222837 | 16 | 287 | 6.4 | 22.5 | 0.00 | 0.00 | 0.00 | 30 | 1012.1 |
| 20260503221831 | 16 | 294 | 9.7 | 24.1 | 0.00 | 0.00 | 0.00 | 32 | 1012.2 |
| 20260503221324 | 16 | 284 | 6.4 | 19.3 | 0.00 | 0.00 | 0.00 | 32 | 1012.1 |
| 20260503220824 | 16 | 282 | 6.4 | 20.9 | 0.00 | 0.00 | 0.00 | 33 | 1012.1 |
| 20260503220319 | 16 | 315 | 8.0 | 20.9 | 0.00 | 0.00 | 0.00 | 32 | 1012.1 |
| 20260503215821 | 16 | 276 | 4.8 | 19.3 | 0.00 | 0.00 | 0.00 | 32 | 1012.1 |
| 20260503215559 | 16 | 311 | 9.7 | 22.5 | 0.00 | 0.00 | 0.00 | 31 | 1012.2 |
| 20260503215319 | 16 | 265 | 8.0 | 22.5 | 0.00 | 0.00 | 0.00 | 33 | 1012.1 |
| 20260503214323 | 16 | 310 | 9.7 | 24.1 | 0.00 | 0.00 | 0.00 | 32 | 1012.1 |
| 20260503213821 | 16 | 327 | 9.7 | 24.1 | 0.00 | 0.00 | 0.00 | 31 | 1012.0 |
| 20260503213552 | 16 | 292 | 6.4 | 20.9 | 0.00 | 0.00 | 0.00 | 32 | 1012.0 |
| 20260503212817 | 16 | 324 | 6.4 | 20.9 | 0.00 | 0.00 | 0.00 | 34 | 1011.9 |
| 20260503212322 | 15 | 259 | 11.3 | 22.5 | 0.00 | 0.00 | 0.00 | 33 | 1012.0 |
| 20260503212314 | 15 | 286 | 9.7 | 22.5 | 0.00 | 0.00 | 0.00 | 34 | 1012.0 |
| 20260503211313 | 15 | 261 | 11.3 | 24.1 | 0.00 | 0.00 | 0.00 | 34 | 1012.0 |
| 20260503210813 | 15 | 327 | 11.3 | 25.7 | 0.00 | 0.00 | 0.00 | 32 | 1012.0 |
| 20260503210313 | 16 | 321 | 9.7 | 25.7 | 0.00 | 0.00 | 0.00 | 34 | 1012.0 |
| 20260503205809 | 16 | 269 | 11.3 | 22.5 | 0.00 | 0.00 | 0.00 | 33 | 1012.1 |
| 20260503205309 | 16 | 294 | 11.3 | 24.1 | 0.00 | 0.00 | 0.00 | 33 | 1012.1 |
| 20260503204809 | 16 | 242 | 12.9 | 30.6 | 0.00 | 0.00 | 0.00 | 33 | 1012.1 |
| 20260503204306 | 15 | 279 | 14.5 | 30.6 | 0.00 | 0.00 | 0.00 | 32 | 1012.0 |
| 20260503203805 | 16 | 238 | 14.5 | 29.0 | 0.00 | 0.00 | 0.00 | 33 | 1012.1 |
| 20260503203306 | 16 | 269 | 12.9 | 29.0 | 0.00 | 0.00 | 0.00 | 32 | 1012.2 |
| 20260503202816 | 15 | 287 | 11.3 | 30.6 | 0.00 | 0.00 | 0.00 | 32 | 1012.0 |
| 20260503202807 | 16 | 286 | 9.7 | 24.1 | 0.00 | 0.00 | 0.00 | 33 | 1012.1 |
| 20260503202036 | 15 | 257 | 12.9 | 30.6 | 0.00 | 0.00 | 0.00 | 32 | 1012.1 |
| 20260503201309 | 15 | 287 | 12.9 | 27.4 | 0.00 | 0.00 | 0.00 | 32 | 1012.2 |
| 20260503200806 | 15 | 286 | 9.7 | 24.1 | 0.00 | 0.00 | 0.00 | 34 | 1012.3 |
| 20260503200306 | 15 | 317 | 11.3 | 30.6 | 0.00 | 0.00 | 0.00 | 34 | 1012.4 |
| 20260503195805 | 15 | 285 | 16.1 | 30.6 | 0.00 | 0.00 | 0.00 | 33 | 1012.4 |
| 20260503195307 | 15 | 281 | 19.3 | 33.8 | 0.00 | 0.00 | 0.00 | 33 | 1012.5 |
| 20260503194805 | 15 | 282 | 17.7 | 33.8 | 0.00 | 0.00 | 0.00 | 32 | 1012.4 |
| 20260503194306 | 15 | 282 | 12.9 | 27.4 | 0.00 | 0.00 | 0.00 | 34 | 1012.5 |
| 20260503193758 | 15 | 275 | 11.3 | 32.2 | 0.00 | 0.00 | 0.00 | 33 | 1012.4 |
| 20260503193258 | 15 | 267 | 11.3 | 32.2 | 0.00 | 0.00 | 0.00 | 33 | 1012.5 |
| 20260503192758 | 15 | 254 | 12.9 | 30.6 | 0.00 | 0.00 | 0.00 | 34 | 1012.5 |
| 20260503192257 | 15 | 302 | 14.5 | 32.2 | 0.00 | 0.00 | 0.00 | 34 | 1012.5 |
| 20260503192030 | 15 | 286 | 12.9 | 33.8 | 0.00 | 0.00 | 0.00 | 32 | 1012.6 |
| 20260503191258 | 15 | 275 | 9.7 | 33.8 | 0.00 | 0.00 | 0.00 | 33 | 1012.5 |
| 20260503190758 | 15 | 271 | 11.3 | 27.4 | 0.00 | 0.00 | 0.00 | 33 | 1012.4 |
| 20260503190257 | 15 | 276 | 11.3 | 29.0 | 0.00 | 0.00 | 0.00 | 33 | 1012.6 |
| 20260503185755 | 15 | 269 | 11.3 | 29.0 | 0.00 | 0.00 | 0.00 | 33 | 1012.6 |
| 20260503185255 | 15 | 296 | 11.3 | 29.0 | 0.00 | 0.00 | 0.00 | 31 | 1012.6 |
| 20260503184755 | 15 | 289 | 9.7 | 24.1 | 0.00 | 0.00 | 0.00 | 33 | 1012.8 |
| 20260503184255 | 15 | 272 | 9.7 | 24.1 | 0.00 | 0.00 | 0.00 | 33 | 1012.8 |
| 20260503183757 | 14 | 350 | 12.9 | 30.6 | 0.00 | 0.00 | 0.00 | 35 | 1012.8 |
| 20260503183252 | 14 | 287 | 12.9 | 30.6 | 0.00 | 0.00 | 0.00 | 33 | 1013.0 |
| 20260503182750 | 14 | 329 | 11.3 | 25.7 | 0.00 | 0.00 | 0.00 | 34 | 1012.8 |
| 20260503182249 | 14 | 273 | 12.9 | 27.4 | 0.00 | 0.00 | 0.00 | 35 | 1013.0 |
| 20260503181750 | 14 | 272 | 14.5 | 33.8 | 0.00 | 0.00 | 0.00 | 34 | 1013.0 |
| 20260503181248 | 14 | 294 | 12.9 | 33.8 | 0.00 | 0.00 | 0.00 | 36 | 1013.2 |
| 20260503181018 | 13 | 279 | 14.5 | 32.2 | 0.00 | 0.00 | 0.00 | 35 | 1013.0 |
| 20260503180520 | 13 | 251 | 14.5 | 32.2 | 0.00 | 0.00 | 0.00 | 35 | 1013.0 |
| 20260503175748 | 13 | 274 | 14.5 | 29.0 | 0.00 | 0.00 | 0.00 | 35 | 1013.1 |
| 20260503175249 | 13 | 295 | 14.5 | 29.0 | 0.00 | 0.00 | 0.00 | 34 | 1013.2 |
| 20260503174746 | 13 | 269 | 14.5 | 30.6 | 0.00 | 0.00 | 0.00 | 36 | 1013.1 |
| 20260503174515 | 13 | 279 | 12.9 | 30.6 | 0.00 | 0.00 | 0.00 | 34 | 1013.0 |
| 20260503173744 | 13 | 350 | 12.9 | 27.4 | 0.00 | 0.00 | 0.00 | 39 | 1013.2 |
| 20260503173528 | 13 | 296 | 16.1 | 33.8 | 0.00 | 0.00 | 0.00 | 38 | 1013.2 |
| 20260503173241 | 13 | 267 | 14.5 | 33.8 | 0.00 | 0.00 | 0.00 | 39 | 1013.2 |
| 20260503172242 | 13 | 286 | 12.9 | 33.8 | 0.00 | 0.00 | 0.00 | 36 | 1013.3 |
| 20260503171742 | 13 | 296 | 12.9 | 33.8 | 0.00 | 0.00 | 0.00 | 37 | 1013.3 |
| 20260503171241 | 13 | 274 | 14.5 | 29.0 | 0.00 | 0.00 | 0.00 | 35 | 1013.4 |
| 20260503170739 | 13 | 314 | 14.5 | 29.0 | 0.00 | 0.00 | 0.00 | 35 | 1013.3 |
| 20260503170239 | 13 | 312 | 12.9 | 27.4 | 0.00 | 0.00 | 0.00 | 37 | 1013.4 |
| 20260503150654 | 11 | 277 | 12.9 | 29.0 | 0.00 | 0.00 | 0.00 | 45 | 1013.6 |
| 20260503150154 | 11 | 275 | 12.9 | 33.8 | 0.00 | 0.00 | 0.00 | 45 | 1013.7 |
| 20260503140136 | 10 | 275 | 11.3 | 25.7 | 0.00 | 0.00 | 0.00 | 52 | 1013.6 |
| 20260503131120 | 9 | 310 | 8.0 | 24.1 | 0.00 | 0.00 | 0.00 | 57 | 1013.4 |
| 20260503130619 | 8 | 319 | 4.8 | 20.9 | 0.00 | 0.00 | 0.00 | 60 | 1013.5 |
| 20260503130120 | 8 | 309 | 1.6 | 17.7 | 0.00 | 0.00 | 0.00 | 60 | 1013.4 |